Weather History for Jackson, MS

Change the Weather History Date:

Friday, January 11, 2013

  Actual Average Record
Temperature  
Mean Temperature 65 °F 45 °F  
Max Temperature 69 °F 56 °F 80 °F (1916)
Min Temperature 61 °F 35 °F 1 °F (1962)
Degree Days  
Heating Degree Days 0 20  
Month to date heating degree days 177 220  
Since 1 July heating degree days 1038 1170  
Cooling Degree Days 0 0  
Month to date cooling degree days 0 0  
Year to date cooling degree days 0 0  
Growing Degree Days 15 (Base 50)    
Moisture  
Dew Point 63 °F    
Average Humidity 92    
Maximum Humidity 100    
Minimum Humidity 84    
Precipitation  
Precipitation 0.05 in 0.15 in 2.83 in (1980)
Month to date precipitation 3.12 1.62  
Year to date precipitation 3.12 1.62  
Sea Level Pressure  
Sea Level Pressure 30.03 in    
Wind  
Wind Speed 7 mph (South)    
Max Wind Speed 14 mph    
Max Gust Speed 17 mph    
Visibility 9 miles    
Events Rain    
T = Trace of Precipitation, MM = Missing Value Source: NWS Daily Summary

Daily Weather History Graph

Daily Weather History Graph

Search for Another Location

Airport:

Trip Planner

Search our weather history database for the weather conditions in past years. The results will help you decide how hot, cold, wet, or windy it might be!

Date:

Astronomy

Jan. 11, 2013 Rise Set
Actual Time 7:02 AM CST 5:14 PM CST
Civil Twilight 6:35 AM CST 5:41 PM CST
Nautical Twilight 6:05 AM CST 6:11 PM CST
Astronomical Twilight 5:35 AM CST 6:41 PM CST
Moon 6:37 AM CST (1/11) 5:29 PM CST (1/11)
Length of Visible Light 11h 05m
Length of Day
10h 12m
Waning Crescent, 0% of the Moon is Illuminated
Jan 11
Waning Crescent
Jan 11
New
Jan 18
First Quarter
Jan 26
Full
Feb 3
Last Quarter

Hourly Weather History & Observations

Time (CST) Temp. Dew Point Humidity Pressure Visibility Wind Dir Wind Speed Gust Speed Precip Events Conditions
12:54 AM 63.0 °F 61.0 °F 93% 30.04 in 5.0 mi South 6.9 mph - 0.01 in Rain Light Rain
1:40 AM 62.6 °F 60.8 °F 94% 30.05 in 3.0 mi South 8.1 mph - 0.01 in Rain Light Rain
1:54 AM 62.1 °F 61.0 °F 96% 30.05 in 3.0 mi South 6.9 mph - 0.01 in   Overcast
2:54 AM 63.0 °F 61.0 °F 93% 30.03 in 8.0 mi South 8.1 mph - N/A   Overcast
3:22 AM 62.6 °F 62.6 °F 100% 30.03 in 6.0 mi South 9.2 mph - N/A   Overcast
3:54 AM 63.0 °F 62.1 °F 97% 30.02 in 9.0 mi South 9.2 mph - N/A   Overcast
4:54 AM 63.0 °F 62.1 °F 97% 30.03 in 3.0 mi SW 3.5 mph - 0.01 in Rain Light Rain
5:35 AM 62.6 °F 60.8 °F 94% 30.04 in 10.0 mi WSW 5.8 mph - 0.01 in Rain Light Rain
5:54 AM 62.6 °F 60.8 °F 94% 30.05 in 6.0 mi WSW 4.6 mph - N/A   Overcast
6:03 AM 62.6 °F 60.8 °F 94% 30.06 in 4.0 mi West 4.6 mph - 0.00 in Rain Light Rain
6:24 AM 62.6 °F 60.8 °F 94% 30.06 in 10.0 mi WNW 3.5 mph - 0.01 in   Overcast
6:54 AM 62.6 °F 60.8 °F 94% 30.07 in 10.0 mi Calm Calm - N/A   Overcast
7:32 AM 60.8 °F 60.8 °F 100% 30.08 in 10.0 mi Calm Calm - N/A   Overcast
7:54 AM 62.1 °F 57.9 °F 86% 30.07 in 10.0 mi South 3.5 mph - N/A   Mostly Cloudy
8:54 AM 63.0 °F 59.0 °F 87% 30.09 in 10.0 mi SSE 4.6 mph - N/A   Mostly Cloudy
9:54 AM 64.0 °F 59.0 °F 84% 30.09 in 10.0 mi South 5.8 mph - N/A   Mostly Cloudy
10:54 AM 64.9 °F 60.1 °F 84% 30.08 in 10.0 mi South 6.9 mph - N/A   Mostly Cloudy
11:54 AM 64.9 °F 60.1 °F 84% 30.06 in 10.0 mi SSE 5.8 mph - 0.00 in   Overcast
12:54 PM 64.9 °F 62.1 °F 90% 30.04 in 10.0 mi SSE 6.9 mph - N/A   Mostly Cloudy
1:10 PM 64.4 °F 60.8 °F 88% 30.04 in 10.0 mi SSE 10.4 mph - N/A   Overcast
1:54 PM 64.9 °F 62.1 °F 90% 30.03 in 10.0 mi South 10.4 mph - 0.00 in   Mostly Cloudy
2:54 PM 66.9 °F 63.0 °F 87% 30.01 in 10.0 mi South 9.2 mph - N/A   Overcast
3:35 PM 66.2 °F 62.6 °F 88% 30.01 in 10.0 mi SSE 6.9 mph - N/A   Overcast
3:54 PM 66.9 °F 63.0 °F 87% 30.00 in 10.0 mi SSE 5.8 mph - N/A   Overcast
4:54 PM 66.9 °F 64.0 °F 90% 30.00 in 10.0 mi SE 3.5 mph - N/A   Overcast
5:03 PM 66.2 °F 64.4 °F 94% 30.01 in 10.0 mi SSE 4.6 mph - N/A   Overcast
5:23 PM 66.2 °F 64.4 °F 94% 30.01 in 10.0 mi South 3.5 mph - N/A   Overcast
5:54 PM 66.9 °F 64.0 °F 90% 29.99 in 10.0 mi SSE 4.6 mph - N/A   Overcast
6:04 PM 66.2 °F 64.4 °F 94% 30.00 in 10.0 mi SSE 5.8 mph - N/A   Mostly Cloudy
6:15 PM 66.2 °F 64.4 °F 94% 30.01 in 10.0 mi SSE 5.8 mph - N/A   Mostly Cloudy
6:47 PM 66.2 °F 64.4 °F 94% 30.02 in 10.0 mi SSE 5.8 mph - 0.00 in   Mostly Cloudy
6:54 PM 66.9 °F 64.9 °F 93% 30.01 in 10.0 mi SSE 5.8 mph - 0.00 in   Overcast
7:54 PM 66.9 °F 64.9 °F 93% 30.01 in 10.0 mi South 5.8 mph - N/A   Overcast
8:54 PM 68.0 °F 66.0 °F 93% 30.01 in 10.0 mi South 9.2 mph - N/A   Overcast
9:54 PM 69.1 °F 66.0 °F 90% 30.00 in 10.0 mi SSE 10.4 mph - N/A   Overcast
10:17 PM 69.8 °F 66.2 °F 88% 30.01 in 10.0 mi South 13.8 mph - N/A   Overcast
10:54 PM 69.1 °F 66.0 °F 90% 30.01 in 10.0 mi South 9.2 mph - N/A   Overcast
11:54 PM 69.1 °F 66.0 °F 90% 29.99 in 10.0 mi SSE 9.2 mph - N/A   Overcast